Weather History for Dodge City, KS

Change the Weather History Date:

Sunday, October 6, 2013

  Actual Average Record
Temperature  
Mean Temperature 56 °F -  
Max Temperature 72 °F 72 °F 93 °F (1931)
Min Temperature 41 °F 46 °F 30 °F (2001)
Degree Days  
Heating Degree Days 8    
Growing Degree Days 6 (Base 50)    
Moisture  
Dew Point 27 °F    
Average Humidity 35    
Maximum Humidity 58    
Minimum Humidity 11    
Precipitation  
Precipitation 0.00 in - - ()
Sea Level Pressure  
Sea Level Pressure 30.11 in    
Wind  
Wind Speed 16 mph (NW)    
Max Wind Speed 22 mph    
Max Gust Speed 36 mph    
Visibility 10 miles    
Events      
Averages and records for this station are not official NWS values.
T = Trace of Precipitation, MM = Missing Value Source: NWS Daily Summary

Daily Weather History Graph

Daily Weather History Graph

Search for Another Location

Airport:

Trip Planner

Search our weather history database for the weather conditions in past years. The results will help you decide how hot, cold, wet, or windy it might be!

Date:

Astronomy

Oct. 06, 2013 Rise Set
Actual Time 7:40 AM CDT 7:14 PM CDT
Civil Twilight 7:13 AM CDT 7:41 PM CDT
Nautical Twilight 6:43 AM CDT 8:11 PM CDT
Astronomical Twilight 6:13 AM CDT 8:41 PM CDT
Moon 9:24 AM CDT (10/6) 8:18 PM CDT (10/6)
Length of Visible Light 12h 27m
Length of Day
11h 34m
Waxing Crescent, 3% of the Moon is Illuminated
Oct 6
Waxing Crescent
Oct 11
First Quarter
Oct 18
Full
Oct 26
Last Quarter
Nov 3
New

Hourly Weather History & Observations

Time (CDT) Temp. Windchill Dew Point Humidity Pressure Visibility Wind Dir Wind Speed Gust Speed Precip Events Conditions
12:52 AM 45.0 °F 37.9 °F 19.9 °F 37% 30.11 in 10.0 mi WNW 16.1 mph - N/A   Clear
1:52 AM 44.1 °F 37.1 °F 19.9 °F 38% 30.11 in 10.0 mi NW 15.0 mph - N/A   Clear
2:52 AM 43.0 °F 35.4 °F 21.0 °F 42% 30.11 in 10.0 mi NW 16.1 mph - N/A   Clear
3:52 AM 42.1 °F 33.9 °F 23.0 °F 47% 30.09 in 10.0 mi NW 17.3 mph - N/A   Clear
4:52 AM 42.1 °F 33.3 °F 24.1 °F 49% 30.09 in 10.0 mi NW 19.6 mph 27.6 mph N/A   Clear
5:52 AM 41.0 °F 31.9 °F 25.0 °F 53% 30.10 in 10.0 mi WNW 19.6 mph - N/A   Clear
6:52 AM 41.0 °F 32.8 °F 25.0 °F 53% 30.11 in 10.0 mi NW 16.1 mph - N/A   Clear
7:52 AM 41.0 °F 32.8 °F 25.0 °F 53% 30.13 in 10.0 mi WNW 16.1 mph - N/A   Clear
8:52 AM 46.9 °F - 26.1 °F 44% 30.13 in 10.0 mi NW 20.7 mph 27.6 mph N/A   Clear
9:52 AM 53.1 °F - 27.0 °F 37% 30.14 in 10.0 mi NW 21.9 mph 32.2 mph N/A   Clear
10:52 AM 57.9 °F - 26.1 °F 30% 30.14 in 10.0 mi NNW 19.6 mph 35.7 mph N/A   Clear
11:52 AM 62.1 °F - 25.0 °F 24% 30.12 in 10.0 mi NNW 20.7 mph 34.5 mph N/A   Clear
12:52 PM 64.9 °F - 27.0 °F 24% 30.12 in 10.0 mi NW 21.9 mph 29.9 mph N/A   Clear
1:52 PM 66.9 °F - 27.0 °F 22% 30.09 in 10.0 mi NNW 17.3 mph 29.9 mph N/A   Clear
2:52 PM 69.1 °F - 26.1 °F 20% 30.07 in 10.0 mi NNW 18.4 mph 28.8 mph N/A   Clear
3:52 PM 71.1 °F - 28.0 °F 20% 30.06 in 10.0 mi NNW 19.6 mph 29.9 mph N/A   Clear
4:52 PM 71.1 °F - 30.0 °F 22% 30.05 in 10.0 mi NNW 19.6 mph 27.6 mph N/A   Clear
5:52 PM 70.0 °F - 30.9 °F 24% 30.07 in 10.0 mi NNW 17.3 mph 23.0 mph N/A   Clear
6:52 PM 66.9 °F - 32.0 °F 27% 30.08 in 10.0 mi NNW 9.2 mph - N/A   Clear
7:52 PM 57.9 °F - 33.1 °F 39% 30.10 in 10.0 mi NNW 3.5 mph - N/A   Clear
8:52 PM 53.1 °F - 33.1 °F 47% 30.12 in 10.0 mi NW 4.6 mph - N/A   Clear
9:52 PM 51.1 °F - 33.1 °F 50% 30.14 in 8.0 mi NW 6.9 mph - N/A   Clear
10:52 PM 50.0 °F - 34.0 °F 54% 30.14 in 10.0 mi WNW 8.1 mph - N/A   Clear
11:52 PM 48.0 °F - 34.0 °F 58% 30.14 in 10.0 mi WNW 8.1 mph - N/A   Clear